Weather History for KGEV - October, 2011

Change the Weather History Date:

Monday, October 17, 2011

  Actual Average Record
Temperature  
Mean Temperature 68 °F -  
Max Temperature 73 °F 64 °F 76 °F (1992)
Min Temperature 62 °F 39 °F 24 °F (1970)
Cooling Degree Days 2    
Growing Degree Days 18 (Base 50)    
Moisture  
Dew Point 41 °F    
Average Humidity 41    
Maximum Humidity 59    
Minimum Humidity 26    
Precipitation  
Precipitation 0.00 in - - ()
Sea Level Pressure  
Sea Level Pressure 29.97 in    
Wind  
Wind Speed 14 mph (West)    
Max Wind Speed 29 mph    
Max Gust Speed 43 mph    
Visibility 10 miles    
Events      
Averages and records for this station are not official NWS values.
T = Trace of Precipitation, MM = Missing Value Source: NWS Daily Summary

Daily Weather History Graph

Daily Weather History Graph

Search for Another Location

Airport or City:

Trip Planner

Search our weather history database for the weather conditions in past years. The results will help you decide how hot, cold, wet, or windy it might be!

Date:

Astronomy

Oct. 17, 2011 Rise Set
Actual Time 7:34 AM EDT 6:47 PM EDT
Civil Twilight 7:08 AM EDT 7:13 PM EDT
Nautical Twilight 6:38 AM EDT 7:43 PM EDT
Astronomical Twilight 6:08 AM EDT 8:12 PM EDT
Moon 10:33 PM EDT (10/17) 12:32 PM EDT (10/17)
Length of Visible Light 12h 04m
Length of Day
11h 12m
Waning Gibbous, 74% of the Moon is Illuminated
Oct 17
Waning Gibbous
Oct 19
Last Quarter
Oct 26
New
Nov 2
First Quarter
Nov 10
Full

Hourly Weather History & Observations

Time (EDT) Temp. Dew Point Humidity Pressure Visibility Wind Dir Wind Speed Gust Speed Precip Events Conditions
12:15 AM 64.4 °F 30.2 °F 28% 30.01 in 10.0 mi West 9.2 mph - N/A   Clear
12:35 AM 66.2 °F 30.2 °F 26% 30.01 in 10.0 mi West 10.4 mph - N/A   Clear
12:55 AM 64.4 °F 28.4 °F 26% 30.00 in 10.0 mi WSW 8.1 mph - N/A   Clear
1:15 AM 66.2 °F 30.2 °F 26% 30.00 in 10.0 mi West 15.0 mph 25.3 mph N/A   Clear
1:35 AM 64.4 °F 32.0 °F 30% 29.99 in 10.0 mi West 8.1 mph 20.7 mph N/A   Clear
1:55 AM 64.4 °F 32.0 °F 30% 29.99 in 10.0 mi West 20.7 mph 29.9 mph N/A   Clear
2:15 AM 64.4 °F 33.8 °F 32% 29.99 in 10.0 mi WNW 24.2 mph 32.2 mph N/A   Clear
2:35 AM 64.4 °F 35.6 °F 34% 29.99 in 10.0 mi WNW 19.6 mph 41.4 mph N/A   Clear
2:55 AM 64.4 °F 35.6 °F 34% 29.98 in 10.0 mi West 23.0 mph 40.3 mph N/A   Clear
3:15 AM 64.4 °F 35.6 °F 34% 29.97 in 10.0 mi WNW 28.8 mph 42.6 mph N/A   Clear
3:35 AM 62.6 °F 35.6 °F 37% 29.97 in 10.0 mi WNW 21.9 mph 42.6 mph N/A   Clear
3:55 AM 62.6 °F 35.6 °F 37% 29.97 in 10.0 mi WNW 27.6 mph 36.8 mph N/A   Clear
4:15 AM 62.6 °F 35.6 °F 37% 29.97 in 10.0 mi West 21.9 mph 41.4 mph N/A   Clear
4:35 AM 62.6 °F 37.4 °F 39% 29.97 in 10.0 mi WNW 23.0 mph 33.4 mph N/A   Clear
4:55 AM 62.6 °F 37.4 °F 39% 29.97 in 10.0 mi WNW 24.2 mph 35.7 mph N/A   Clear
5:15 AM 62.6 °F 37.4 °F 39% 29.97 in 10.0 mi WNW 18.4 mph 38.0 mph N/A   Clear
5:35 AM 62.6 °F 37.4 °F 39% 29.97 in 10.0 mi WNW 20.7 mph 35.7 mph N/A   Clear
5:55 AM 62.6 °F 37.4 °F 39% 29.98 in 10.0 mi WNW 17.3 mph 34.5 mph N/A   Clear
6:15 AM 62.6 °F 37.4 °F 39% 29.98 in 10.0 mi WNW 18.4 mph 38.0 mph N/A   Clear
6:35 AM 62.6 °F 39.2 °F 42% 29.99 in 10.0 mi WNW 21.9 mph 32.2 mph N/A   Clear
6:55 AM 62.6 °F 39.2 °F 42% 29.99 in 10.0 mi WNW 18.4 mph 26.5 mph N/A   Clear
7:15 AM 62.6 °F 39.2 °F 42% 29.99 in 10.0 mi West 18.4 mph 31.1 mph N/A   Clear
7:55 AM 62.6 °F 41.0 °F 45% 29.98 in 10.0 mi WNW 19.6 mph 32.2 mph N/A   Clear
8:15 AM 62.6 °F 41.0 °F 45% 29.98 in 10.0 mi WNW 18.4 mph 31.1 mph N/A   Clear
8:35 AM 62.6 °F 41.0 °F 45% 29.98 in 10.0 mi West 17.3 mph 34.5 mph N/A   Clear
8:55 AM 62.6 °F 41.0 °F 45% 29.99 in 10.0 mi WNW 18.4 mph 31.1 mph N/A   Clear
9:15 AM 62.6 °F 41.0 °F 45% 29.99 in 10.0 mi WNW 16.1 mph 35.7 mph N/A   Clear
9:35 AM 62.6 °F 41.0 °F 45% 30.00 in 10.0 mi West 13.8 mph 32.2 mph N/A   Clear
9:55 AM 62.6 °F 42.8 °F 48% 30.00 in 10.0 mi West 18.4 mph 28.8 mph N/A   Clear
10:15 AM 64.4 °F 42.8 °F 45% 30.00 in 10.0 mi WNW 17.3 mph 29.9 mph N/A   Clear
10:35 AM 64.4 °F 42.8 °F 45% 30.00 in 10.0 mi WSW 10.4 mph 23.0 mph N/A   Clear
10:55 AM 64.4 °F 42.8 °F 45% 30.00 in 10.0 mi WNW 15.0 mph 23.0 mph N/A   Clear
11:15 AM 66.2 °F 42.8 °F 43% 30.00 in 10.0 mi West 9.2 mph 23.0 mph N/A   Clear
11:35 AM 68.0 °F 42.8 °F 40% 29.99 in 10.0 mi West 9.2 mph 18.4 mph N/A   Clear
11:55 AM 68.0 °F 44.6 °F 43% 29.99 in 10.0 mi West 6.9 mph 29.9 mph N/A   Clear
12:15 PM 68.0 °F 44.6 °F 43% 29.99 in 10.0 mi West 9.2 mph - N/A   Clear
12:35 PM 69.8 °F 44.6 °F 40% 29.98 in 10.0 mi West 5.8 mph - N/A   Clear
12:55 PM 69.8 °F 44.6 °F 40% 29.98 in 10.0 mi West 11.5 mph 21.9 mph N/A   Clear
1:15 PM 71.6 °F 42.8 °F 35% 29.97 in 10.0 mi West 10.4 mph 17.3 mph N/A   Clear
1:35 PM 71.6 °F 44.6 °F 38% 29.96 in 10.0 mi West 10.4 mph 17.3 mph N/A   Clear
2:15 PM 71.6 °F 44.6 °F 38% 29.95 in 10.0 mi WNW 18.4 mph 21.9 mph N/A   Clear
2:35 PM 71.6 °F 44.6 °F 38% 29.95 in 10.0 mi WNW 15.0 mph 26.5 mph N/A   Clear
2:55 PM 73.4 °F 44.6 °F 36% 29.95 in 10.0 mi West 12.7 mph 20.7 mph N/A   Clear
3:15 PM 73.4 °F 44.6 °F 36% 29.93 in 10.0 mi West 9.2 mph 23.0 mph N/A   Clear
3:35 PM 73.4 °F 44.6 °F 36% 29.93 in 10.0 mi WSW 9.2 mph - N/A   Scattered Clouds
3:55 PM 71.6 °F 44.6 °F 38% 29.93 in 10.0 mi West 8.1 mph 18.4 mph N/A   Scattered Clouds
4:15 PM 71.6 °F 44.6 °F 38% 29.93 in 10.0 mi WNW 8.1 mph - N/A   Clear
4:35 PM 71.6 °F 46.4 °F 41% 29.94 in 10.0 mi West 6.9 mph - N/A   Clear
4:55 PM 73.4 °F 46.4 °F 38% 29.94 in 10.0 mi WNW 15.0 mph 20.7 mph N/A   Clear
5:15 PM 71.6 °F 46.4 °F 41% 29.94 in 10.0 mi West 9.2 mph 17.3 mph N/A   Scattered Clouds
5:35 PM 71.6 °F 46.4 °F 41% 29.94 in 10.0 mi West 8.1 mph - N/A   Scattered Clouds
5:55 PM 71.6 °F 46.4 °F 41% 29.94 in 10.0 mi West 10.4 mph 16.1 mph N/A   Mostly Cloudy
6:15 PM 69.8 °F 46.4 °F 43% 29.95 in 10.0 mi West 5.8 mph 16.1 mph N/A   Scattered Clouds
6:35 PM 69.8 °F 46.4 °F 43% 29.95 in 10.0 mi West 4.6 mph - N/A   Clear
6:55 PM 68.0 °F 46.4 °F 46% 29.95 in 10.0 mi West 4.6 mph - N/A   Clear
7:15 PM 68.0 °F 46.4 °F 46% 29.95 in 10.0 mi WSW 5.8 mph - N/A   Clear
7:35 PM 68.0 °F 46.4 °F 46% 29.95 in 10.0 mi WNW 6.9 mph - N/A   Clear
8:15 PM 68.0 °F 46.4 °F 46% 29.96 in 10.0 mi Calm Calm - N/A   Clear
8:35 PM 64.4 °F 46.4 °F 52% 29.96 in 10.0 mi Calm Calm - N/A   Clear
8:55 PM 64.4 °F 48.2 °F 56% 29.96 in 10.0 mi Calm Calm - N/A   Clear
9:15 PM 64.4 °F 46.4 °F 52% 29.96 in 10.0 mi Calm Calm - N/A   Clear
9:35 PM 62.6 °F 48.2 °F 59% 29.96 in 10.0 mi Calm Calm - N/A   Clear
10:15 PM 62.6 °F 48.2 °F 59% 29.96 in 10.0 mi Calm Calm - N/A   Clear
10:35 PM 62.6 °F 48.2 °F 59% 29.96 in 10.0 mi Calm Calm - N/A   Clear
10:55 PM 60.8 °F 48.2 °F 63% 29.95 in 10.0 mi Calm Calm - N/A   Clear
11:15 PM 60.8 °F 48.2 °F 63% 29.95 in 10.0 mi Calm Calm - N/A   Clear
11:35 PM 60.8 °F 46.4 °F 59% 29.95 in 10.0 mi Calm Calm - N/A   Clear
11:55 PM 60.8 °F 48.2 °F 63% 29.95 in 10.0 mi Calm Calm - N/A   Clear